ASA42 KDEN-KLAX

Flight info

Callsign ASA42
Flight time N/A
Altitude 36000
Route BAYLR6 TEHRU JASSE Q90 DNERO ANJLL4
Aircraft B738/M-SDE2E3FGHIRWXY/LB1

Departure

Time 2026-05-07 04:08
Airport Denver International Airport (KDEN)

Arrival

Time N/A
Airport Los Angeles International Airport (KLAX)
Time Latitude Longitude Altitude Speed Heading
2026-05-07 03:03 39.86251 -104.67153 5376 ft 0 kts
2026-05-07 03:54 39.86249 -104.67153 5372 ft 3 kts
2026-05-07 03:54 39.86222 -104.67154 5374 ft 4 kts
2026-05-07 03:55 39.86195 -104.67156 5375 ft 4 kts
2026-05-07 03:55 39.86186 -104.67157 5373 ft 1 kts
2026-05-07 04:01 39.86210 -104.67145 5376 ft 10 kts 39°
2026-05-07 04:01 39.86203 -104.67046 5374 ft 11 kts 136°
2026-05-07 04:02 39.86140 -104.67017 5375 ft 9 kts 160°
2026-05-07 04:02 39.86076 -104.66930 5376 ft 18 kts 97°
2026-05-07 04:02 39.86104 -104.66788 5380 ft 14 kts 77°
2026-05-07 04:02 39.86110 -104.66624 5383 ft 23 kts 87°
2026-05-07 04:03 39.86112 -104.66523 5387 ft 7 kts 96°
2026-05-07 04:03 39.86108 -104.66434 5388 ft 9 kts 91°
2026-05-07 04:03 39.86106 -104.66320 5395 ft 13 kts 91°
2026-05-07 04:03 39.86156 -104.66233 5392 ft 19 kts
2026-05-07 04:04 39.86332 -104.66225 5391 ft 31 kts
2026-05-07 04:04 39.86486 -104.66188 5392 ft 21 kts 57°
2026-05-07 04:04 39.86500 -104.65957 5393 ft 31 kts 89°
2026-05-07 04:04 39.86498 -104.65656 5387 ft 34 kts 93°
2026-05-07 04:05 39.86495 -104.65296 5372 ft 46 kts 91°
2026-05-07 04:05 39.86490 -104.64857 5359 ft 35 kts 91°
2026-05-07 04:05 39.86488 -104.64561 5350 ft 38 kts 91°
2026-05-07 04:05 39.86485 -104.64322 5350 ft 18 kts 90°
2026-05-07 04:06 39.86485 -104.64312 5350 ft 0 kts 90°
2026-05-07 04:06 39.86486 -104.64270 5350 ft 14 kts 89°
2026-05-07 04:07 39.86431 -104.64107 5350 ft 26 kts 169°
2026-05-07 04:07 39.86197 -104.64134 5353 ft 44 kts 181°
2026-05-07 04:07 39.85752 -104.64138 5365 ft 92 kts 180°
2026-05-07 04:07 39.84926 -104.64153 5368 ft 147 kts 180°
2026-05-07 04:08 39.83764 -104.64162 5558 ft 178 kts 180°
2026-05-07 04:08 39.82550 -104.64182 6541 ft 172 kts 182°
2026-05-07 04:08 39.81353 -104.64256 7190 ft 177 kts 199°
2026-05-07 04:08 39.80286 -104.65156 7461 ft 195 kts 226°
2026-05-07 04:09 39.79289 -104.66489 7633 ft 216 kts 229°
2026-05-07 04:09 39.78209 -104.67986 7807 ft 237 kts 229°
2026-05-07 04:09 39.77046 -104.69597 8085 ft 250 kts 229°
2026-05-07 04:09 39.76110 -104.71489 8524 ft 251 kts 255°
2026-05-07 04:10 39.75884 -104.73688 9112 ft 249 kts 274°
2026-05-07 04:10 39.76055 -104.75983 9407 ft 264 kts 280°
2026-05-07 04:10 39.76329 -104.78393 9982 ft 272 kts 281°
2026-05-07 04:10 39.76609 -104.80879 10446 ft 288 kts 281°
2026-05-07 04:11 39.76894 -104.83565 10703 ft 309 kts 281°
2026-05-07 04:11 39.77177 -104.86378 11289 ft 317 kts 281°
2026-05-07 04:11 39.77449 -104.89244 12023 ft 322 kts 278°
2026-05-07 04:11 39.77238 -104.92182 12756 ft 335 kts 259°
2026-05-07 04:12 39.76562 -104.95104 13465 ft 340 kts 258°
2026-05-07 04:12 39.75889 -104.98029 14131 ft 345 kts 259°
2026-05-07 04:12 39.75211 -105.01040 14784 ft 349 kts 259°
2026-05-07 04:12 39.74489 -105.04067 15427 ft 355 kts 255°
2026-05-07 04:13 39.73549 -105.07059 16072 ft 360 kts 252°
2026-05-07 04:13 39.72525 -105.10049 16699 ft 364 kts 251°
2026-05-07 04:13 39.71488 -105.13066 17323 ft 368 kts 251°
2026-05-07 04:13 39.70452 -105.16129 17951 ft 372 kts 252°
2026-05-07 04:14 39.69423 -105.19226 18535 ft 376 kts 252°
2026-05-07 04:14 39.68405 -105.22321 19047 ft 379 kts 252°
2026-05-07 04:14 39.67364 -105.25491 19584 ft 383 kts 252°
2026-05-07 04:14 39.66315 -105.28680 20086 ft 386 kts 252°
2026-05-07 04:15 39.65256 -105.31897 20581 ft 390 kts 252°
2026-05-07 04:15 39.64185 -105.35143 21114 ft 393 kts 252°
2026-05-07 04:15 39.63095 -105.38443 21647 ft 397 kts 252°
2026-05-07 04:15 39.62015 -105.41720 22154 ft 401 kts 252°
2026-05-07 04:16 39.60913 -105.45060 22656 ft 404 kts 252°
2026-05-07 04:16 39.59815 -105.48384 23136 ft 408 kts 252°
2026-05-07 04:16 39.58689 -105.51776 23625 ft 412 kts 252°